Starlink 11148

operational
NORAD ID: 60044 Int'l Des: 2024-112 Owner: SPXS Country: US Constellation: starlink
LEOCIRCULAR

关于 Starlink 11148

正在加载描述...

实时位置

正在加载3D地球...

即将过境

高度历史

Altitude vs Time

uPlot chart will show altitude changes over time

两行轨道根数

1 60044U 24112G 25260.65229898 -.00001303 00000-0 -59001-5 0 9997
2 60044 53.1586 39.2730 0000958 74.7624 285.3500 15.69715032 73800
Epoch: Sep 17, 2025 • Age: 23 hours

当前状态

高度 366.2 km
速度 7.69 km/s
星下点 -22.31°S, 162.18°E
发射日期 Jun 8, 2024
运行时间 1.2 years
类型 internet

技术详情

分类 Payload
质量 960.00 kg
干质量 910.00 kg
总质量 960.00 kg
长度 0.30 m
直径 4.10 m
跨度 29.00 m
形状 Box + pan
制造商 SPXS
平台类型 Starlink V2MD
阶段状态 In Orbit
所有者/国家 SPXS/US

大型星座

Loading constellations...